Inquirer Daily News

Weather

Get conditions and forecasts for any City, State, ZIP code or Country:  
Trenton, NJ
on Sunday, January 20, 2013

Sunday
Previous Day Next Day
Daily Summary
 ActualAverageRecord
Temperature
Mean Temperature °F 31°F  
Max Temperature 54°F 39°F 64°F (1947)
Min Temperature 30°F 23°F -5°F (1985)
Degree Days
Heating Degree Days 23 34  
Month to date heating degree days 543 679  
Since 1 July heating degree days 2301 2574  
Cooling Degree Days 0 0  
Month to date cooling degree days 0 0  
Year to date cooling degree days 0 0  
Moisture
Dew Point 22°F   
Average Humidity 46    
Maximum Humidity 70    
Minimum Humidity 22    
Precipitation
Precipitation 0.00 in 0.08 in 1.05 in (1979)
Month to date precipitation 1.63 2.06  
Year to date precipitation 1.63 2.06  
Wind
Wind Speed 13 mph   
Max Wind Speed 24 mph   
Max Gust Speed 37 mph   
Visibility 10 miles   
Events     

Key: T is trace of precipitation, MM is missing value
Source: NWS Daily Summary
Time(EST)TemperatureDew PointHumidity Pressure Visibility Wind DirectionWind SpeedGust SpeedPrecipitationEvents Conditions
12:53 AM 39.0°F 28.0°F 65% 29.88 in 10.0 miles SW 9.2 mph - N/A   Clear
1:53 AM 37.9°F 28.9°F 70% 29.86 in 10.0 miles WSW 6.9 mph - N/A   Clear
2:53 AM 39.0°F 28.0°F 65% 29.85 in 10.0 miles WSW 5.8 mph - N/A   Clear
3:53 AM 39.0°F 28.0°F 65% 29.83 in 10.0 miles WSW 6.9 mph - N/A   Clear
4:53 AM 37.9°F 28.0°F 68% 29.79 in 10.0 miles SW 9.2 mph - N/A   Clear
5:53 AM 39.0°F 28.0°F 65% 29.77 in 10.0 miles SW 11.5 mph - N/A   Clear
6:53 AM 39.0°F 28.0°F 65% 29.76 in 10.0 miles SW 12.7 mph - N/A   Clear
7:53 AM 39.0°F 28.0°F 65% 29.76 in 10.0 miles WSW 11.5 mph - N/A   Clear
8:53 AM 43.0°F 28.9°F 58% 29.77 in 10.0 miles WSW 9.2 mph 19.6 mph N/A   Clear
9:53 AM 48.9°F 28.0°F 44% 29.78 in 10.0 miles West 12.7 mph 20.7 mph N/A   Clear
10:53 AM 52.0°F 28.9°F 41% 29.76 in 10.0 miles West 16.1 mph 26.5 mph N/A   Clear
11:53 AM 54.0°F 28.0°F 37% 29.74 in 10.0 miles West 24.2 mph 32.2 mph N/A   Clear
12:53 PM 53.1°F 27.0°F 37% 29.73 in 10.0 miles WNW 16.1 mph 32.2 mph N/A   Partly Cloudy
1:53 PM 53.1°F 27.0°F 37% 29.74 in 10.0 miles NW 15.0 mph 21.9 mph N/A   Partly Cloudy
2:53 PM 53.1°F 19.9°F 27% 29.77 in 10.0 miles NW 19.6 mph 29.9 mph N/A   Clear
3:53 PM 51.1°F 14.0°F 23% 29.81 in 10.0 miles NW 12.7 mph 35.7 mph N/A   Clear
4:53 PM 46.9°F 12.0°F 24% 29.84 in 10.0 miles NNW 13.8 mph 29.9 mph N/A   Clear
5:53 PM 43.0°F 15.1°F 32% 29.88 in 10.0 miles NNW 16.1 mph 26.5 mph N/A   Clear
6:53 PM 39.9°F 14.0°F 35% 29.93 in 10.0 miles NNW 15.0 mph 25.3 mph N/A   Clear
7:53 PM 37.0°F 12.9°F 37% 29.96 in 10.0 miles NNW 17.3 mph 26.5 mph N/A   Clear
8:53 PM 35.1°F 12.9°F 40% 29.99 in 10.0 miles NNW 11.5 mph 19.6 mph N/A   Clear
9:53 PM 33.1°F 12.0°F 42% 30.00 in 10.0 miles NNW 11.5 mph 18.4 mph N/A   Clear
10:53 PM 32.0°F 12.0°F 44% 30.03 in 10.0 miles North 13.8 mph 19.6 mph N/A   Clear
11:53 PM 30.0°F 10.9°F 45% 30.04 in 10.0 miles NNW 8.1 mph - N/A   Clear
Astronomy
Sunrise:07:17 AM (EST) Moon Rise:12:03 PM (EST)1/20
Sunset:05:03 PM (EST) Moon Set:01:47 AM (EST)1/20
Moon Phase
Jan. 20 Jan. 26 Feb. 03 Feb. 10 Feb. 17

Copyright © 2014 The Weather Underground, Inc.